North Bend, OR

5:22 PM PST on February 05, 2016 (GMT -0800)
North Bend Municipal

Weather History for KOTH - January, 2013

Change the Weather History Date:

Monday, January 7, 2013

  Actual Average Record
Temperature  
Mean Temperature 49 °F 46 °F  
Max Temperature 52 °F 51 °F 68 °F (1934)
Min Temperature 46 °F 40 °F 19 °F (1937)
Degree Days  
Heating Degree Days 16 19  
Month to date heating degree days 125 135  
Since 1 July heating degree days 2000 2196  
Cooling Degree Days 0 0  
Month to date cooling degree days 0 0  
Year to date cooling degree days 0 0  
Moisture  
Dew Point 49 °F    
Average Humidity 98    
Maximum Humidity 100    
Minimum Humidity 93    
Precipitation  
Precipitation 0.18 in 0.35 in 2.69 in (1950)
Month to date precipitation 0.40 2.45  
Year to date precipitation 0.40 2.45  
Sea Level Pressure  
Sea Level Pressure 30.23 in    
Wind  
Wind Speed 7 mph (South)    
Max Wind Speed 15 mph    
Max Gust Speed 21 mph    
Visibility 5 miles    
Events      
T = Trace of Precipitation, MM = Missing Value Source: NWS Daily Summary

Daily Weather History Graph

Daily Weather History Graph

Search for Another Location

Airport or City:

Trip Planner

Search our weather history database for the weather conditions in past years. The results will help you decide how hot, cold, wet, or windy it might be!

Date:

Astronomy

Jan. 07, 2013 Rise Set
Actual Time 7:49 AM PST 4:57 PM PST
Civil Twilight 7:17 AM PST 5:30 PM PST
Nautical Twilight 6:41 AM PST 6:05 PM PST
Astronomical Twilight 6:06 AM PST 6:40 PM PST
Moon 3:18 AM PST (1/7) 1:14 PM PST (1/7)
Length of Visible Light 10h 12m
Length of Day
9h 08m
Waning Crescent, 21% of the Moon is Illuminated
Jan 7
Waning Crescent
Jan 11
New
Jan 18
First Quarter
Jan 26
Full
Feb 3
Last Quarter

Hourly Weather History & Observations

Time (PST) Temp. Windchill Dew Point Humidity Pressure Visibility Wind Dir Wind Speed Gust Speed Precip Events Conditions
12:15 AM 46.4 °F 42.4 °F 46.4 °F 100% 30.18 in 10.0 mi SSE 8.1 mph - N/A   Overcast
12:35 AM 46.4 °F 43.5 °F 46.4 °F 100% 30.18 in 10.0 mi SSE 5.8 mph - N/A   Overcast
12:55 AM 46.4 °F 43.5 °F 46.4 °F 100% 30.18 in 10.0 mi SSE 5.8 mph - N/A   Overcast
1:15 AM 46.4 °F 43.5 °F 46.4 °F 100% 30.16 in 10.0 mi SSE 5.8 mph - N/A   Overcast
1:35 AM 46.4 °F 45.2 °F 46.4 °F 100% 30.18 in 10.0 mi SSE 3.5 mph - N/A   Overcast
1:55 AM 46.4 °F 45.2 °F 46.4 °F 100% 30.19 in 10.0 mi SE 3.5 mph - N/A   Overcast
2:15 AM 46.4 °F 42.4 °F 46.4 °F 100% 30.17 in 10.0 mi SE 8.1 mph - N/A   Overcast
2:35 AM 46.4 °F 43.5 °F 44.6 °F 93% 30.18 in 10.0 mi SSE 5.8 mph - N/A   Overcast
2:55 AM 46.4 °F 43.5 °F 44.6 °F 93% 30.19 in 10.0 mi SSE 5.8 mph - N/A   Overcast
3:15 AM 46.4 °F 44.3 °F 46.4 °F 100% 30.19 in 10.0 mi SE 4.6 mph - N/A   Overcast
3:35 AM 46.4 °F 43.5 °F 46.4 °F 100% 30.18 in 10.0 mi South 5.8 mph - N/A   Overcast
3:55 AM 48.2 °F - 46.4 °F 93% 30.17 in 10.0 mi SSE 5.8 mph - N/A   Overcast
4:35 AM 48.2 °F - 48.2 °F 100% 30.16 in 10.0 mi SSE 5.8 mph - N/A   Overcast
4:55 AM 48.2 °F - 48.2 °F 100% 30.17 in 10.0 mi SE 4.6 mph - N/A   Overcast
5:15 AM 50.0 °F - 48.2 °F 94% 30.16 in 9.0 mi South 9.2 mph 17.3 mph N/A   Overcast
5:35 AM 50.0 °F - 48.2 °F 94% 30.16 in 8.0 mi SSW 10.4 mph 20.7 mph N/A   Overcast
5:55 AM 50.0 °F - 48.2 °F 94% 30.16 in 10.0 mi South 11.5 mph 17.3 mph N/A   Overcast
6:15 AM 50.0 °F - 48.2 °F 94% 30.16 in 7.0 mi South 11.5 mph 18.4 mph N/A   Overcast
6:35 AM 50.0 °F - 48.2 °F 94% 30.18 in 5.0 mi SW 11.5 mph 16.1 mph 0.01 in   Overcast
6:55 AM 50.0 °F - 48.2 °F 94% 30.18 in 5.0 mi SSW 10.4 mph 19.6 mph 0.02 in   Overcast
7:15 AM 50.0 °F - 48.2 °F 94% 30.17 in 9.0 mi SSW 15.0 mph 21.9 mph N/A   Overcast
7:35 AM 50.0 °F - 48.2 °F 94% 30.17 in 8.0 mi SSW 13.8 mph 21.9 mph 0.01 in   Overcast
7:55 AM 50.0 °F - 48.2 °F 94% 30.18 in 5.0 mi SSW 12.7 mph 19.6 mph 0.01 in   Overcast
8:15 AM 50.0 °F - 48.2 °F 94% 30.20 in 2.5 mi SSW 11.5 mph 19.6 mph 0.01 in   Overcast
8:35 AM 50.0 °F - 50.0 °F 100% 30.21 in 2.5 mi SSW 13.8 mph 17.3 mph 0.01 in   Overcast
8:55 AM 50.0 °F - 48.2 °F 94% 30.21 in 4.0 mi SSW 13.8 mph 20.7 mph 0.02 in   Overcast
9:15 AM 50.0 °F - 50.0 °F 100% 30.22 in 10.0 mi SSW 15.0 mph 19.6 mph N/A   Overcast
9:35 AM 50.0 °F - 50.0 °F 100% 30.24 in 4.0 mi SSW 9.2 mph 16.1 mph 0.01 in   Overcast
9:55 AM 50.0 °F - 50.0 °F 100% 30.24 in 2.0 mi SSW 15.0 mph 19.6 mph 0.02 in   Overcast
10:15 AM 51.8 °F - 50.0 °F 94% 30.24 in 5.0 mi SSW 11.5 mph 19.6 mph N/A   Overcast
10:35 AM 51.8 °F - 50.0 °F 94% 30.25 in 10.0 mi SSW 11.5 mph - N/A   Overcast
11:15 AM 51.8 °F - 51.8 °F 100% 30.26 in 2.5 mi SSW 10.4 mph 17.3 mph N/A   Overcast
11:35 AM 51.8 °F - 51.8 °F 100% 30.26 in 1.2 mi SSW 9.2 mph - N/A   Overcast
11:55 AM 51.8 °F - 51.8 °F 100% 30.26 in 2.5 mi SSW 9.2 mph 16.1 mph 0.01 in   Overcast
12:15 PM 51.8 °F - 51.8 °F 100% 30.25 in 3.0 mi SSW 10.4 mph 17.3 mph N/A   Overcast
12:35 PM 51.8 °F - 51.8 °F 100% 30.26 in 1.5 mi SW 10.4 mph - N/A   Overcast
12:55 PM 51.8 °F - 51.8 °F 100% 30.25 in 1.5 mi SSW 8.1 mph 16.1 mph N/A   Overcast
1:15 PM 51.8 °F - 51.8 °F 100% 30.25 in 1.2 mi SW 10.4 mph - 0.01 in   Overcast
1:35 PM 51.8 °F - 50.0 °F 94% 30.25 in 1.2 mi SW 9.2 mph - 0.02 in   Overcast
1:55 PM 51.8 °F - 50.0 °F 94% 30.25 in 1.5 mi SW 5.8 mph - 0.02 in   Overcast
2:15 PM 51.8 °F - 50.0 °F 94% 30.26 in 1.0 mi WSW 8.1 mph - 0.01 in   Overcast
2:35 PM 51.8 °F - 51.8 °F 100% 30.26 in 1.2 mi WSW 5.8 mph - 0.03 in   Overcast
2:55 PM 51.8 °F - 51.8 °F 100% 30.27 in 4.0 mi SW 4.6 mph - 0.03 in   Overcast
3:15 PM 51.8 °F - 51.8 °F 100% 30.28 in 1.8 mi WSW 6.9 mph - 0.01 in   Overcast
3:35 PM 51.8 °F - 51.8 °F 100% 30.28 in 1.5 mi WSW 5.8 mph - 0.02 in   Overcast
3:55 PM 51.8 °F - 51.8 °F 100% 30.28 in 1.8 mi SW 4.6 mph - 0.02 in   Overcast
4:15 PM 51.8 °F - 51.8 °F 100% 30.28 in 1.8 mi SW 3.5 mph - N/A   Overcast
4:35 PM 51.8 °F - 51.8 °F 100% 30.29 in 4.0 mi SW 4.6 mph - N/A   Overcast
4:55 PM 50.0 °F - 50.0 °F 100% 30.28 in 2.5 mi SSW 3.5 mph - N/A   Overcast
5:15 PM 50.0 °F - 50.0 °F 100% 30.27 in 2.5 mi SSW 3.5 mph - N/A   Overcast
5:35 PM 50.0 °F - 50.0 °F 100% 30.27 in 2.5 mi South 3.5 mph - 0.01 in   Overcast
5:55 PM 50.0 °F - 50.0 °F 100% 30.28 in 2.5 mi SSW 3.5 mph - 0.01 in   Overcast
6:15 PM 50.0 °F - 50.0 °F 100% 30.29 in 2.0 mi Calm Calm - N/A   Overcast
6:35 PM 50.0 °F - 50.0 °F 100% 30.29 in 2.0 mi South 3.5 mph - N/A   Overcast
6:55 PM 50.0 °F - 50.0 °F 100% 30.29 in 2.0 mi South 3.5 mph - N/A   Overcast
7:15 PM 50.0 °F - 50.0 °F 100% 30.28 in 2.0 mi SSE 4.6 mph - N/A   Overcast
7:35 PM 50.0 °F - 50.0 °F 100% 30.27 in 2.0 mi South 5.8 mph - N/A   Overcast
7:55 PM 50.0 °F - 50.0 °F 100% 30.27 in 2.0 mi SSE 4.6 mph - N/A   Overcast
8:15 PM 50.0 °F - 50.0 °F 100% 30.27 in 8.0 mi SSE 5.8 mph - N/A   Overcast
8:35 PM 50.0 °F - 50.0 °F 100% 30.27 in 8.0 mi SSE 5.8 mph - N/A   Overcast
8:55 PM 50.0 °F - 50.0 °F 100% 30.27 in 8.0 mi SSE 3.5 mph - N/A   Overcast
9:15 PM 50.0 °F - 50.0 °F 100% 30.27 in 8.0 mi SSE 4.6 mph - N/A   Overcast
9:35 PM 50.0 °F - 50.0 °F 100% 30.28 in 3.0 mi Calm Calm - N/A   Overcast
9:55 PM 50.0 °F - 50.0 °F 100% 30.28 in 3.0 mi SSE 3.5 mph - 0.01 in   Overcast
10:15 PM 50.0 °F - 50.0 °F 100% 30.28 in 5.0 mi SSE 3.5 mph - N/A   Overcast
10:55 PM 50.0 °F - 50.0 °F 100% 30.27 in 7.0 mi SSE 4.6 mph - N/A   Overcast
11:15 PM 50.0 °F - 50.0 °F 100% 30.28 in 8.0 mi Calm Calm - N/A   Overcast
11:35 PM 50.0 °F - 50.0 °F 100% 30.29 in 9.0 mi Calm Calm - N/A   Overcast
11:55 PM 50.0 °F - 50.0 °F 100% 30.29 in 4.0 mi SW 10.4 mph - 0.01 in   Overcast